When you browse on this site, cookies collect data to enhance your experience and personalize the content and advertising you see.
Visit our Privacy Policy to learn more. By continuing to use the site, you agree to this use of cookies and data.
  • In France
  • List of Countries
  • For 7 days
  • Water Temperature
  • Weather Map
  • Weather Widgets
  • user-avatar
    Login

    Hourly Weather Kosice

    Today, 18 August, Sunday

    Time Temperature Precipitation Wind Pressure Humidity
    00:00 +15°C° 0 mm 0 mps 736 mmHg 82%
    01:00 +16°C° 0 mm 1 mps 736 mmHg 81%
    02:00 +15°C° 0 mm 1 mps 736 mmHg 81%
    03:00 +15°C° 0 mm 1 mps 736 mmHg 81%
    04:00 +14°C° 0 mm 0 mps 736 mmHg 81%
    05:00 +16°C° 0 mm 1 mps 736 mmHg 78%
    06:00 +18°C° 0 mm 1 mps 736 mmHg 76%
    07:00 +19°C° 0 mm 1 mps 736 mmHg 74%
    08:00 +19°C° 0 mm 1 mps 737 mmHg 73%
    09:00 +20°C° 0 mm 1 mps 737 mmHg 72%
    10:00 +20°C° 0 mm 2 mps 737 mmHg 71%
    11:00 +21°C° 0 mm 2 mps 737 mmHg 67%
    12:00 +23°C° 0 mm 2 mps 737 mmHg 63%
    13:00 +24°C° 0 mm 3 mps 737 mmHg 58%
    14:00 +25°C° 0 mm 3 mps 737 mmHg 58%
    15:00 +25°C° 0 mm 3 mps 737 mmHg 57%
    16:00 +25°C° 0 mm 3 mps 736 mmHg 57%
    17:00 +24°C° 0 mm 3 mps 736 mmHg 64%
    18:00 +21°C° 0 mm 2 mps 737 mmHg 71%
    19:00 +20°C° 0 mm 1 mps 737 mmHg 77%
    20:00 +20°C° 0 mm 1 mps 737 mmHg 78%
    21:00 +19°C° 0 mm 1 mps 737 mmHg 78%
    22:00 +19°C° 0 mm 1 mps 737 mmHg 78%
    23:00 +18°C° 0 mm 1 mps 737 mmHg 78%

    Tomorrow, 19 August, Monday

    Time Temperature Precipitation Wind Pressure Humidity
    00:00 +18°C° 0 mm 1 mps 737 mmHg 79%
    01:00 +16°C° 0 mm 1 mps 737 mmHg 79%
    02:00 +15°C° 0 mm 0 mps 737 mmHg 80%
    03:00 +15°C° 0 mm 0 mps 737 mmHg 81%
    04:00 +14°C° 0 mm 0 mps 737 mmHg 82%
    05:00 +18°C° 0 mm 1 mps 737 mmHg 78%
    06:00 +19°C° 0 mm 1 mps 737 mmHg 74%
    07:00 +21°C° 0 mm 1 mps 738 mmHg 70%
    08:00 +23°C° 0 mm 1 mps 738 mmHg 65%
    09:00 +24°C° 0 mm 2 mps 738 mmHg 59%
    10:00 +26°C° 0 mm 2 mps 738 mmHg 54%
    11:00 +27°C° 0 mm 2 mps 738 mmHg 52%
    12:00 +28°C° 0 mm 2 mps 738 mmHg 49%
    13:00 +29°C° 0 mm 2 mps 738 mmHg 47%
    14:00 +29°C° 0 mm 2 mps 738 mmHg 49%
    15:00 +29°C° 0 mm 2 mps 738 mmHg 52%
    16:00 +29°C° 0 mm 2 mps 738 mmHg 54%
    17:00 +27°C° 0 mm 1 mps 738 mmHg 60%
    18:00 +25°C° 0 mm 1 mps 738 mmHg 66%
    19:00 +21°C° 0 mm 0 mps 738 mmHg 71%
    20:00 +22°C° 0 mm 1 mps 738 mmHg 72%
    21:00 +22°C° 0 mm 1 mps 739 mmHg 73%
    22:00 +21°C° 0 mm 1 mps 739 mmHg 74%
    23:00 +21°C° 0 mm 1 mps 739 mmHg 78%

    Day after tomorrow, 20 August, Tuesday

    Time Temperature Precipitation Wind Pressure Humidity
    00:00 +19°C° 0 mm 2 mps 739 mmHg 82%
    01:00 +19°C° 0 mm 2 mps 739 mmHg 86%
    02:00 +19°C° 0 mm 2 mps 739 mmHg 88%
    03:00 +18°C° 0 mm 2 mps 740 mmHg 90%
    04:00 +18°C° 0 mm 2 mps 740 mmHg 93%
    05:00 +19°C° 0 mm 2 mps 740 mmHg 89%
    06:00 +20°C° 0 mm 2 mps 740 mmHg 86%
    07:00 +22°C° 0 mm 3 mps 740 mmHg 82%
    08:00 +25°C° 0 mm 2 mps 740 mmHg 75%
    09:00 +26°C° 0 mm 2 mps 741 mmHg 68%
    10:00 +28°C° 0 mm 2 mps 741 mmHg 61%
    11:00 +29°C° 0 mm 1 mps 740 mmHg 57%
    12:00 +30°C° 0 mm 1 mps 740 mmHg 53%
    13:00 +32°C° 0 mm 1 mps 740 mmHg 48%
    14:00 +31°C° 0.1 mm 1 mps 740 mmHg 49%
    15:00 +31°C° 0.1 mm 1 mps 740 mmHg 49%
    16:00 +31°C° 0.1 mm 1 mps 739 mmHg 50%
    17:00 +27°C° 0 mm 0 mps 739 mmHg 56%
    18:00 +25°C° 0 mm 0 mps 739 mmHg 63%
    19:00 +23°C° 0 mm 0 mps 739 mmHg 70%
    20:00 +22°C° 0 mm 0 mps 739 mmHg 72%
    21:00 +23°C° 0 mm 1 mps 739 mmHg 74%
    22:00 +23°C° 0 mm 1 mps 739 mmHg 76%
    23:00 +22°C° 0 mm 1 mps 739 mmHg 78%

    21 August, Wednesday

    Time Temperature Precipitation Wind Pressure Humidity
    00:00 +22°C° 0 mm 1 mps 739 mmHg 79%
    01:00 +20°C° 0 mm 0 mps 738 mmHg 81%
    02:00 +19°C° 0 mm 0 mps 738 mmHg 82%
    03:00 +19°C° 0 mm 0 mps 738 mmHg 82%
    04:00 +19°C° 0 mm 0 mps 738 mmHg 83%
    05:00 +20°C° 0 mm 0 mps 739 mmHg 79%
    06:00 +21°C° 0 mm 0 mps 739 mmHg 75%
    07:00 +23°C° 0 mm 0 mps 739 mmHg 72%
    08:00 +27°C° 0 mm 1 mps 739 mmHg 65%
    09:00 +28°C° 0 mm 1 mps 740 mmHg 59%
    10:00 +30°C° 0 mm 1 mps 740 mmHg 52%
    11:00 +31°C° 0 mm 1 mps 740 mmHg 51%
    12:00 +31°C° 0 mm 2 mps 740 mmHg 50%
    13:00 +32°C° 0 mm 2 mps 740 mmHg 49%
    14:00 +30°C° 0.3 mm 3 mps 740 mmHg 56%
    15:00 +29°C° 0.3 mm 4 mps 740 mmHg 63%
    16:00 +27°C° 0.3 mm 5 mps 740 mmHg 69%
    17:00 +25°C° 0.1 mm 5 mps 740 mmHg 74%
    18:00 +22°C° 0.1 mm 5 mps 740 mmHg 79%
    19:00 +20°C° 0.1 mm 5 mps 740 mmHg 84%
    20:00 +19°C° 0.4 mm 5 mps 741 mmHg 86%
    21:00 +17°C° 0.4 mm 5 mps 741 mmHg 88%
    22:00 +18°C° 0.4 mm 4 mps 741 mmHg 89%
    23:00 +18°C° 0 mm 4 mps 741 mmHg 90%

    22 August, Thursday

    Time Temperature Precipitation Wind Pressure Humidity
    00:00 +17°C° 0 mm 4 mps 741 mmHg 91%
    01:00 +17°C° 0 mm 4 mps 741 mmHg 91%
    02:00 +17°C° 0.1 mm 4 mps 741 mmHg 91%
    03:00 +17°C° 0.1 mm 4 mps 741 mmHg 91%
    04:00 +17°C° 0.1 mm 4 mps 741 mmHg 91%
    05:00 +17°C° 0.2 mm 4 mps 741 mmHg 90%
    06:00 +17°C° 0.2 mm 4 mps 741 mmHg 88%
    07:00 +17°C° 0.2 mm 5 mps 741 mmHg 86%
    08:00 +19°C° 0.1 mm 5 mps 741 mmHg 81%
    09:00 +20°C° 0.1 mm 5 mps 741 mmHg 76%
    10:00 +21°C° 0.1 mm 5 mps 741 mmHg 71%
    11:00 +22°C° 0 mm 5 mps 741 mmHg 69%
    12:00 +22°C° 0 mm 5 mps 741 mmHg 67%
    13:00 +22°C° 0 mm 5 mps 741 mmHg 66%
    14:00 +22°C° 0 mm 5 mps 741 mmHg 67%
    15:00 +22°C° 0 mm 5 mps 741 mmHg 69%
    16:00 +21°C° 0 mm 5 mps 741 mmHg 71%
    17:00 +20°C° 0 mm 5 mps 741 mmHg 75%
    18:00 +19°C° 0 mm 5 mps 741 mmHg 78%
    19:00 +18°C° 0 mm 4 mps 741 mmHg 81%
    20:00 +18°C° 0 mm 4 mps 741 mmHg 82%
    21:00 +17°C° 0 mm 4 mps 741 mmHg 83%
    22:00 +17°C° 0 mm 4 mps 741 mmHg 84%
    23:00 +17°C° 0 mm 4 mps 741 mmHg 85%

    23 August, Friday

    Time Temperature Precipitation Wind Pressure Humidity
    00:00 +17°C° 0 mm 4 mps 741 mmHg 85%
    01:00 +17°C° 0 mm 4 mps 741 mmHg 86%
    02:00 +17°C° 0 mm 4 mps 741 mmHg 85%
    03:00 +15°C° 0 mm 4 mps 741 mmHg 85%
    04:00 +15°C° 0 mm 4 mps 741 mmHg 85%
    05:00 +16°C° 0 mm 5 mps 742 mmHg 82%
    06:00 +17°C° 0 mm 5 mps 742 mmHg 80%
    07:00 +17°C° 0 mm 6 mps 742 mmHg 77%
    08:00 +20°C° 0 mm 6 mps 742 mmHg 73%
    09:00 +21°C° 0 mm 6 mps 742 mmHg 69%
    10:00 +22°C° 0 mm 6 mps 743 mmHg 65%
    11:00 +23°C° 0 mm 6 mps 743 mmHg 62%
    12:00 +23°C° 0 mm 6 mps 743 mmHg 60%
    13:00 +24°C° 0 mm 6 mps 742 mmHg 58%
    14:00 +24°C° 0 mm 6 mps 742 mmHg 60%
    15:00 +23°C° 0 mm 6 mps 742 mmHg 61%
    16:00 +23°C° 0 mm 5 mps 742 mmHg 63%
    17:00 +22°C° 0 mm 5 mps 742 mmHg 68%
    18:00 +20°C° 0 mm 5 mps 742 mmHg 72%
    19:00 +19°C° 0 mm 4 mps 742 mmHg 77%
    20:00 +17°C° 0 mm 5 mps 742 mmHg 80%
    21:00 +17°C° 0 mm 5 mps 742 mmHg 82%
    22:00 +16°C° 0 mm 5 mps 743 mmHg 84%
    23:00 +15°C° 0 mm 4 mps 743 mmHg 85%
    Show more